This is the latest recevied weather packets stored in our database for station/object IZ5MMH-1. If no packets are shown the sender has not sent any weather packets the latest 10 day(s).
| Time | Temp. | Humidity | Pressure | Rain* | Wind** | Luminosity | Snow |
|---|---|---|---|---|---|---|---|
| 1787747089 | 35.56° C | 41% | 1016.7 hPa | - | - | - | - |
| 1787746488 | 35.56° C | 42% | 1016.8 hPa | - | - | - | - |
| 1787745889 | 35° C | 43% | 1016.8 hPa | - | - | - | - |
| 1787745289 | 35.56° C | 42% | 1016.7 hPa | - | - | - | - |
| 1787744689 | 35.56° C | 40% | 1016.7 hPa | - | - | - | - |
| 1787744088 | 35° C | 42% | 1016.8 hPa | - | - | - | - |
| 1787743488 | 36.11° C | 41% | 1017 hPa | - | - | - | - |
| 1787742889 | 36.67° C | 41% | 1017 hPa | - | - | - | - |
| 1787742288 | 36.11° C | 41% | 1017.2 hPa | - | - | - | - |
| 1787741688 | 35° C | 44% | 1017.3 hPa | - | - | - | - |
| 1787741088 | 33.33° C | 45% | 1017.4 hPa | - | - | - | - |
| 1787740488 | 35° C | 42% | 1017.4 hPa | - | - | - | - |
| 1787739888 | 36.11° C | 40% | 1017.6 hPa | - | - | - | - |
| 1787739288 | 35.56° C | 41% | 1017.6 hPa | - | - | - | - |
| 1787738688 | 35.56° C | 40% | 1017.6 hPa | - | - | - | - |
| 1787738089 | 35.56° C | 40% | 1017.6 hPa | - | - | - | - |
| 1787737488 | 34.44° C | 40% | 1017.6 hPa | - | - | - | - |
| 1787736887 | 35° C | 41% | 1017.6 hPa | - | - | - | - |
| 1787736288 | 35° C | 40% | 1017.6 hPa | - | - | - | - |
| 1787735688 | 34.44° C | 41% | 1017.5 hPa | - | - | - | - |
| 1787735088 | 34.44° C | 42% | 1017.7 hPa | - | - | - | - |
| 1787734487 | 33.89° C | 45% | 1017.6 hPa | - | - | - | - |
| 1787733891 | 33.33° C | 46% | 1017.5 hPa | - | - | - | - |
| 1787733287 | 32.22° C | 48% | 1017.3 hPa | - | - | - | - |
| 1787732688 | 32.22° C | 47% | 1017.2 hPa | - | - | - | - |
* Rain since midnight (hover to see other rain measurements)
** Current wind speed in m/s (hover to see current wind gust speed)